Birmingham, United Kingdom

11:16 AM BST on May 21, 2018 (GMT +0100)
Birmingham

Weather History for EGBB - October, 2012

Change the Weather History Date:

Tuesday, October 16, 2012

  Actual Average Record
Temperature  
Mean Temperature 48 °F -  
Max Temperature 55 °F 53 °F 66 °F (2017)
Min Temperature 41 °F 40 °F 35 °F (2010)
Degree Days  
Heating Degree Days 17    
Moisture  
Dew Point 41 °F    
Average Humidity 76    
Maximum Humidity 100    
Minimum Humidity 51    
Precipitation  
Precipitation 0.00 in 0.07 in - ()
Sea Level Pressure  
Sea Level Pressure 29.45 in    
Wind  
Wind Speed 13 mph ()    
Max Wind Speed 25 mph    
Max Gust Speed 39 mph    
Visibility 5.9 miles    
Events Rain    
Averages and records for this station are not official NWS values.
T = Trace of Precipitation, MM = Missing Value Source: Averaged Metar Reports

Daily Weather History Graph

Daily Weather History Graph

Search for Another Location

Airport or City:

Astronomy

Oct. 16, 2012 Rise Set
Actual Time 7:34 AM BST 6:09 PM BST
Civil Twilight 7:00 AM BST 6:43 PM BST
Nautical Twilight 6:20 AM BST 7:23 PM BST
Astronomical Twilight 5:40 AM BST 8:02 PM BST
Moon 8:54 AM BST (10/16) 6:24 PM BST (10/16)
Length of Visible Light 11h 43m
Length of Day
10h 34m
New Moon, 1% of the Moon is Illuminated
Oct 16
New Moon
Oct 22
First Quarter
Oct 29
Full
Nov 7
Last Quarter
Nov 13
New

Hourly Weather History & Observations

Time (BST) Temp. Windchill Dew Point Humidity Pressure Visibility Wind Dir Wind Speed Gust Speed Precip Events Conditions
12:20 AM 48.2 °F - 48.2 °F 100% 29.36 in 3.1 mi SE 12.7 mph - N/A Rain Light Rain
12:50 AM 50.0 °F - 48.2 °F 94% 29.33 in 3.1 mi SE 11.5 mph - N/A Rain Light Rain
1:20 AM 50.0 °F - 50.0 °F 100% 29.30 in 6.2 mi SSE 12.7 mph - N/A   Light Drizzle
1:50 AM 50.0 °F - 50.0 °F 100% 29.27 in 6.2 mi SSE 15.0 mph - N/A Rain Light Rain
2:20 AM 50.0 °F - 50.0 °F 100% 29.27 in 6.2 mi SSE 11.5 mph - N/A   Drizzle
2:50 AM 50.0 °F - 50.0 °F 100% 29.27 in 3.7 mi SSW 9.2 mph - N/A Rain Rain
3:20 AM 48.2 °F - 44.6 °F 87% 29.30 in 6.2 mi West 18.4 mph - N/A   Scattered Clouds
3:50 AM 48.2 °F - 44.6 °F 87% 29.33 in - West 12.7 mph - N/A   Clear
4:20 AM 46.4 °F 41.1 °F 42.8 °F 87% 29.33 in 6.2 mi SW 11.5 mph - N/A   Partly Cloudy
4:50 AM 46.4 °F 41.5 °F 42.8 °F 87% 29.33 in 6.2 mi SW 10.4 mph - N/A   Partly Cloudy
5:20 AM 48.2 °F - 42.8 °F 82% 29.33 in - SW 13.8 mph - N/A   Clear
5:50 AM 48.2 °F - 41.0 °F 76% 29.33 in - SW 11.5 mph - N/A   Clear
6:20 AM 48.2 °F - 41.0 °F 76% 29.33 in 6.2 mi SSW 12.7 mph - N/A   Scattered Clouds
6:50 AM 48.2 °F - 41.0 °F 76% 29.33 in 6.2 mi SW 16.1 mph - N/A   Mostly Cloudy
7:20 AM 48.2 °F - 41.0 °F 76% 29.33 in 6.2 mi SW 15.0 mph 27.6 mph N/A   Mostly Cloudy
7:50 AM 48.2 °F - 41.0 °F 76% 29.36 in 6.2 mi WSW 18.4 mph 31.1 mph N/A   Mostly Cloudy
8:20 AM 48.2 °F - 41.0 °F 76% 29.36 in 6.2 mi WSW 19.6 mph 31.1 mph N/A   Mostly Cloudy
8:50 AM 48.2 °F - 41.0 °F 76% 29.39 in 6.2 mi SW 15.0 mph - N/A   Mostly Cloudy
9:20 AM 48.2 °F - 42.8 °F 82% 29.39 in 6.2 mi WSW 19.6 mph - N/A   Scattered Clouds
9:50 AM 50.0 °F - 42.8 °F 76% 29.42 in 6.2 mi WSW 18.4 mph - N/A   Scattered Clouds
10:20 AM 51.8 °F - 41.0 °F 67% 29.42 in 6.2 mi WSW 17.3 mph 31.1 mph N/A   Scattered Clouds
10:50 AM 51.8 °F - 41.0 °F 67% 29.44 in 6.2 mi West 20.7 mph 34.5 mph N/A   Partly Cloudy
11:20 AM 51.8 °F - 39.2 °F 62% 29.44 in 6.2 mi WSW 23.0 mph 39.1 mph N/A   Partly Cloudy
11:50 AM 53.6 °F - 41.0 °F 62% 29.47 in 6.2 mi West 23.0 mph 36.8 mph N/A   Scattered Clouds
12:20 PM 53.6 °F - 41.0 °F 62% 29.47 in 6.2 mi WSW 15.0 mph - N/A   Scattered Clouds
12:50 PM 53.6 °F - 41.0 °F 62% 29.47 in 6.2 mi West 21.9 mph - N/A   Scattered Clouds
1:20 PM 55.4 °F - 39.2 °F 54% 29.50 in 6.2 mi WSW 25.3 mph 38.0 mph N/A   Scattered Clouds
1:50 PM 53.6 °F - 39.2 °F 58% 29.50 in 6.2 mi WSW 23.0 mph 35.7 mph N/A   Scattered Clouds
2:20 PM 55.4 °F - 39.2 °F 54% 29.50 in 6.2 mi WSW 21.9 mph - N/A   Scattered Clouds
2:50 PM 55.4 °F - 39.2 °F 54% 29.53 in 6.2 mi WSW 19.6 mph - N/A   Scattered Clouds
3:20 PM 55.4 °F - 37.4 °F 51% 29.53 in 6.2 mi West 18.4 mph - N/A   Scattered Clouds
3:50 PM 53.6 °F - 37.4 °F 54% 29.56 in 6.2 mi West 16.1 mph - N/A   Scattered Clouds
4:20 PM 53.6 °F - 37.4 °F 54% 29.56 in 6.2 mi West 15.0 mph - N/A   Partly Cloudy
4:50 PM 53.6 °F - 37.4 °F 54% 29.56 in 6.2 mi WSW 12.7 mph - N/A   Partly Cloudy
5:20 PM 51.8 °F - 37.4 °F 58% 29.56 in 6.2 mi West 10.4 mph - N/A   Partly Cloudy
5:50 PM 51.8 °F - 39.2 °F 62% 29.56 in 6.2 mi West 6.9 mph - N/A   Partly Cloudy
6:20 PM 50.0 °F - 37.4 °F 62% 29.56 in - WSW 5.8 mph - N/A   Clear
6:50 PM 48.2 °F - 39.2 °F 71% 29.59 in - Variable 4.6 mph - N/A   Clear
7:20 PM 46.4 °F 42.9 °F 39.2 °F 76% 29.59 in - SSW 6.9 mph - N/A   Clear
7:50 PM 44.6 °F 41.4 °F 37.4 °F 76% 29.59 in - South 5.8 mph - N/A   Clear
8:20 PM 44.6 °F 41.4 °F 37.4 °F 76% 29.59 in - South 5.8 mph - N/A   Clear
8:50 PM 44.6 °F 40.7 °F 39.2 °F 81% 29.59 in - SSE 6.9 mph - N/A   Clear
9:20 PM 42.8 °F 38.6 °F 39.2 °F 87% 29.59 in - South 6.9 mph - N/A   Clear
9:50 PM 42.8 °F 38.0 °F 41.0 °F 93% 29.59 in - South 8.1 mph - N/A   Clear
10:20 PM 42.8 °F 39.3 °F 39.2 °F 87% 29.59 in - South 5.8 mph - N/A   Clear
10:50 PM 41.0 °F 37.1 °F 39.2 °F 93% 29.59 in - SSE 5.8 mph - N/A   Clear
11:20 PM 41.0 °F 37.1 °F 39.2 °F 93% 29.56 in - SE 5.8 mph - N/A   Clear
11:50 PM 42.8 °F 40.1 °F 41.0 °F 93% 29.56 in - SE 4.6 mph - N/A   Clear